GW0458 Weather Reports


time (UTC)temp
F
wind
direction
speed
knots
gust
knots
rain 1hr
in
rain 24hr
in
rain mn
in
humidity
%
barometer
mb
20260507042219 54 201 0.0 0.0 0.00 0.00 0.00 91 1028.8
20260507035216 54 205 0.0 0.0 0.00 0.00 0.00 90 1028.9
20260507032211 55 200 0.9 0.9 0.00 0.00 0.00 88 1028.6
20260507025211 55 205 0.0 0.0 0.00 0.00 0.00 86 1028.3
20260507022209 56 200 0.0 0.0 0.00 0.00 0.00 86 1028.3
20260507015209 56 200 0.0 0.0 0.00 0.00 0.00 85 1028.3
20260507012206 56 204 0.0 0.9 0.00 0.00 0.00 85 1028.1
20260507005206 58 212 0.0 0.9 0.00 0.00 0.00 83 1028.2
20260507002201 57 212 0.0 0.9 0.00 0.00 0.00 84 1028.3
20260506235157 58 209 0.0 0.9 0.00 0.00 0.00 83 1028.5
20260506232154 57 207 0.0 0.0 0.00 0.00 0.00 84 1028.4
20260506225154 57 211 0.9 0.9 0.00 0.00 0.00 83 1028.4
20260506222150 56 210 0.0 0.0 0.00 0.00 0.00 86 1028.7
20260506215148 56 211 0.0 0.0 0.00 0.00 0.00 85 1028.7
20260506212147 56 211 0.9 0.9 0.00 0.00 0.00 86 1028.5
20260506205143 55 199 0.0 0.0 0.00 0.00 0.00 88 1028.7
20260506202138 55 210 0.0 0.0 0.00 0.00 0.00 89 1028.5
20260506195137 54 209 0.0 0.0 0.00 0.00 0.00 91 1028.5
20260506192136 55 209 0.0 0.0 0.00 0.00 0.00 94 1028.3
20260506185134 54 209 0.0 0.0 0.00 0.00 0.00 95 1028.2
20260506182133 54 213 0.9 0.9 0.00 0.00 0.00 97 1028.1
20260506175131 53 204 0.0 0.0 0.00 0.00 0.00 99 1027.7
20260506172126 53 208 0.0 0.0 0.00 0.00 0.00 99 1028.2
20260506165122 53 209 0.0 0.0 0.00 0.00 0.00 99 1027.8
20260506162117 53 191 0.0 0.0 0.00 0.00 0.00 99 1027.3
20260506155116 53 193 0.0 0.0 0.00 0.00 0.00 99 1027.7
20260506151850 53 192 0.0 0.0 0.00 0.00 0.00 99 1027.7
20260506144849 53 192 0.0 0.0 0.00 0.00 0.00 99 1027.5
20260506141846 52 190 0.9 0.9 0.00 0.00 0.00 99 1027.1
20260506134846 53 186 0.9 0.9 0.00 0.00 0.00 99 1027.0
20260506131845 53 196 0.0 0.0 0.00 0.00 0.00 99 1026.7
20260506124841 53 193 0.0 0.9 0.00 0.00 0.00 98 1026.9
20260506121837 53 194 0.0 0.0 0.00 0.00 0.00 97 1026.4
20260506114833 53 195 0.0 0.0 0.00 0.00 0.00 96 1026.3
20260506111829 53 203 0.0 0.0 0.00 0.00 0.00 95 1026.3
20260506104829 53 208 0.0 0.0 0.00 0.00 0.00 94 1026.0
20260506101825 53 206 0.0 0.0 0.00 0.00 0.00 93 1026.0
20260506094820 54 208 0.0 0.9 0.00 0.00 0.00 94 1025.7
20260506091818 54 206 0.0 0.0 0.00 0.00 0.00 94 1025.1
20260506084817 54 204 0.0 0.0 0.00 0.00 0.00 94 1025.1
20260506081816 54 189 0.0 0.9 0.00 0.00 0.00 93 1025.1
20260506071807 53 199 0.0 0.0 0.00 0.00 0.00 97 1024.9
20260506061807 54 208 0.0 0.0 0.00 0.00 0.00 94 1023.9